Andover, NJ

10:49 AM EDT on March 29, 2017 (GMT -0400)
Andover

Weather History for K12N - September, 2013

Change the Weather History Date:

Saturday, September 21, 2013

  Actual Average (KFWN) Record (KFWN)
Temperature  
Mean Temperature 64 °F -  
Max Temperature 77 °F 73 °F 90 °F (1983)
Min Temperature 50 °F 47 °F 30 °F (1993)
Degree Days  
Heating Degree Days 2    
Growing Degree Days 14 (Base 50)    
Moisture  
Dew Point 56 °F    
Average Humidity 77    
Maximum Humidity 97    
Minimum Humidity 44    
Precipitation  
Precipitation 0.58 in - - ()
Sea Level Pressure  
Sea Level Pressure 29.84 in    
Wind  
Wind Speed 2 mph (SSW)    
Max Wind Speed 10 mph    
Max Gust Speed 21 mph    
Averages and records for this station are not official NWS values.
T = Trace of Precipitation, MM = Missing Value Source: NWS Daily Summary

Daily Weather History Graph

Daily Weather History Graph

Search for Another Location

Airport or City:

Trip Planner

Search our weather history database for the weather conditions in past years. The results will help you decide how hot, cold, wet, or windy it might be!

Date:

Astronomy

Sep. 21, 2013 Rise Set
Actual Time 6:45 AM EDT 6:57 PM EDT
Civil Twilight 6:18 AM EDT 7:24 PM EDT
Nautical Twilight 5:45 AM EDT 7:57 PM EDT
Astronomical Twilight 5:13 AM EDT 8:29 PM EDT
Moon 8:05 PM EDT (9/21) 9:02 AM EDT (9/21)
Length of Visible Light 13h 06m
Length of Day
12h 11m
Waning Gibbous, 94% of the Moon is Illuminated
Sep 21
Waning Gibbous
Sep 26
Last Quarter
Oct 4
New
Oct 11
First Quarter
Oct 18
Full

Hourly Weather History & Observations

Time (EDT) Temp. Dew Point Humidity Pressure Visibility Wind Dir Wind Speed Gust Speed Precip Events Conditions
12:54 AM 57.0 °F 55.0 °F 93% 30.01 in - Calm Calm - N/A   Unknown
1:54 AM 57.9 °F 55.9 °F 93% 29.99 in - Calm Calm - N/A   Unknown
2:54 AM 55.9 °F 54.0 °F 93% 29.97 in - Calm Calm - N/A   Unknown
3:54 AM 54.0 °F 53.1 °F 97% 29.96 in - Calm Calm - N/A   Unknown
4:54 AM 53.1 °F 51.1 °F 93% 29.96 in - Calm Calm - N/A   Unknown
5:54 AM 51.1 °F 50.0 °F 96% 29.96 in - Calm Calm - N/A   Unknown
6:54 AM 50.0 °F 48.9 °F 96% 29.97 in - Calm Calm - N/A   Unknown
7:54 AM 55.0 °F 54.0 °F 96% 29.96 in - Calm Calm - N/A   Unknown
8:54 AM 60.1 °F 55.9 °F 86% 29.94 in - Calm Calm - N/A   Unknown
9:54 AM 66.0 °F 57.9 °F 75% 29.91 in - South 9.2 mph - N/A   Unknown
10:54 AM 69.1 °F 57.9 °F 68% 29.89 in - Variable 5.8 mph - N/A   Unknown
11:54 AM 68.0 °F 59.0 °F 73% 29.87 in - Variable 5.8 mph - N/A   Unknown
12:54 PM 72.0 °F 57.9 °F 61% 29.84 in - SSW 8.1 mph 16.1 mph N/A   Unknown
1:54 PM 73.9 °F 57.0 °F 55% 29.80 in - South 8.1 mph - N/A   Unknown
2:54 PM 73.9 °F 55.0 °F 52% 29.77 in - SSW 8.1 mph 20.7 mph N/A   Unknown
3:54 PM 77.0 °F 54.0 °F 45% 29.75 in - Variable 5.8 mph 17.3 mph N/A   Unknown
4:54 PM 75.0 °F 52.0 °F 44% 29.73 in - SSW 10.4 mph 18.4 mph N/A   Unknown
5:54 PM 73.0 °F 53.1 °F 49% 29.72 in - Variable 3.5 mph - N/A   Unknown
6:54 PM 72.0 °F 54.0 °F 53% 29.71 in - South 4.6 mph - N/A   Unknown
7:54 PM 70.0 °F 57.0 °F 63% 29.71 in - Calm Calm - N/A   Unknown
8:54 PM 66.9 °F 63.0 °F 87% 29.70 in - SW 4.6 mph - 0.02 in   Unknown
9:54 PM 64.9 °F 63.0 °F 93% 29.68 in - SW 3.5 mph - 0.09 in   Unknown
10:54 PM 64.9 °F 63.0 °F 93% 29.69 in - North 9.2 mph 16.1 mph 0.13 in   Unknown
11:54 PM 61.0 °F 59.0 °F 93% 29.69 in - Calm Calm - 0.34 in   Unknown